Regional Weather Roundup
Issued by NWS

Home | Current Version | Previous Version | Text Only | Print | Product List | Glossary On
Versions: 1 2 3 4 5 6 7 8 9 10 11 12 13 14 15 16 17 18 19 20 21 22 23 24 25 26 27 28 29 30 31 32 33 34 35 36 37 38 39 40 41 42 43 44 45 46 47 48 49 50
000
ASUS44 KMEG 040610
RWRTN
TENNESSEE HOURLY STATE WEATHER ROUNDUP
NATIONAL WEATHER SERVICE MEMPHIS TN
100 AM CDT WED MAY 04 2016

TNZ002-004-019-021-049-052-054-088>092-040700-
WEST TENNESSEE

CITY           SKY/WX    TMP DP  RH WIND       PRES   REMARKS
MEMPHIS INTL   CLEAR     54  49  83 CALM      29.96S
NWS MEMPHIS      N/A     50 N/A N/A MISG        N/A
JACKSON        CLOUDY    55  48  77 W7        29.94F
DYERSBURG      CLEAR     52  48  87 CALM      29.94S
UNION CITY     CLEAR     52  50  93 SW5       29.92F
LEXINGTON      CLEAR     50  50 100 CALM      29.92F
$$

TNZ008-025-027-028-033-062-065-066-040700-
NORTH MIDDLE TENNESSEE

CITY           SKY/WX    TMP DP  RH WIND       PRES   REMARKS
NASHVILLE      CLEAR     53  47  79 W5        29.91F
CLARKSVILLE    LGT RAIN  49  46  90 W3        29.91S
SMYRNA         CLEAR     51  48  89 W5        29.92F
COOKEVILLE     CLOUDY    52  50  93 CALM      29.88F
CROSSVILLE     CLOUDY    52  46  80 W3        29.89F
$$

TNZ061-075-076-078-094-096-097-040700-
SOUTH MIDDLE TENNESSEE

CITY           SKY/WX    TMP DP  RH WIND       PRES   REMARKS
FAYETTEVILLE   PTCLDY    54  48  82 CALM      29.92R
TULLAHOMA      CLEAR     50  48  93 NW6       29.91F
WINCHESTER     PTCLDY    54  48  82 CALM      29.91F
MCMINNVILLE    CLEAR     52  46  82 W3        29.90F
COLUMBIA       CLEAR    N/A N/A N/A CALM      29.91F
SHELBYVILLE    PTCLDY    50  50 100 CALM      29.92S
$$

TNZ017-018-042-046-047-040700-
NORTHEAST TENNESSEE

CITY           SKY/WX    TMP DP  RH WIND       PRES   REMARKS
TRI CITIES     CLOUDY    57  47  69 NW7       29.84F
$$

TNZ012-013-036-069-073-074-040700-
CENTRAL EAST TENNESSEE

CITY           SKY/WX    TMP DP  RH WIND       PRES   REMARKS
KNOXVILLE      NOT AVBL
OAK RIDGE      CLOUDY    58  47  66 SW3       29.87F
GATLINBURG     CLOUDY    57  46  67 CALM      29.85F
MORRISTOWN     CLOUDY    55  48  76 NW5       29.84F
$$

TNZ083-085-099-040700-
SOUTHEAST TENNESSEE

CITY           SKY/WX    TMP DP  RH WIND       PRES   REMARKS
CHATTANOOGA    CLOUDY    59  48  67 W5        29.88F
$$

SKY/WX REPORTED AS FAIR MEANS FEW OR NO CLOUDS BELOW
12 THOUSAND FEET.





USA.gov is the U.S. government's official web portal to all federal, state and local government web resources and services.